Weather in Vysokoye

Russia / Tomsk District     56°36′17″N   86°54′31″E
temp.,
°C
wind,
m/s
gust,
m/s
humid.,
%
clouds,
%
prec.,
mm/h
press.,
hPa
HPBL,
m
8 may, sat
sat801:00+9wnw4958100 0.0 1013239
04:00+7w38624 0.0 1014217
07:00+8sw5116483 0.0 1014463
10:00+12w7114473 0.0 10132146
13:00+14w8133497 0.0 10132590
16:00+14nw7133598 0.0 10122459
19:00+12nnw51145100 0.0 10121923
22:00+8nnw366393 0.0 1014187
9 may, sun
sun901:00+5nw38775 0.0 1016268
04:00+3nw488320 0.0 1017277
07:00+3nw47815 0.0 1018379
10:00+7nnw465579 0.0 10191521
13:00+9nnw4646100 0.1 10191786
16:00+9n554799 0.0 10201577
19:00+10n564863 0.0 10211513
22:00+5nne36685 0.0 1023118
10 may, mon
mon1001:00+3nne37835 0.0 1024162
04:00+2nne22876 0.0 102434
07:00+4ne24775 0.0 1024171
10:00+9ene355842 0.0 10241138
13:00+11ene455094 0.0 10231625
16:00+15e36379 0.0 10212001
19:00+14e57412 0.0 10201926
22:00+9e24625 0.0 102170
11 may, tue
tue1101:00+6ene38750 0.0 1020155
04:00+4ne36833 0.0 1019111
07:00+6ne4107124 0.0 1019306
10:00+13ene694474 0.0 10181455
13:00+16ene6834100 0.0 10162094
16:00+17ene673293 0.0 10152343
19:00+16ne573882 0.0 10151765
22:00+13ene61250100 0.0 1017489
12 may, wed
wed1201:00+11ne41059100 0.0 1017444
04:00+7ene41175100 0.0 1018321
07:00+7ene4978100 0.0 1019416
10:00+10ene5754100 0.0 1019905
13:00+13ene5636100 0.0 10181819
16:00+15ene5631100 0.0 10172228
19:00+14ene553471 0.0 10182167
22:00+9ene395016 0.0 1020178